Other Public Products
Issued by NWS Charleston, SC

Home | Current Version | Previous Version | Text Only | Print | Product List | Glossary On
Versions: 1 2 3 4 5 6 7 8 9 10 11 12 13 14 15 16 17 18 19 20 21 22 23 24 25 26 27 28 29 30 31 32 33 34 35 36 37 38 39 40 41 42 43 44 45 46 47 48 49 50
353
FPUS82 KCHS 250827
OPUCHS

TEST...KCHS/KSAV Gateway Observations...TEST
National Weather Service Charleston SC
400 AM EDT TUE APR 25 2017

NOTE: "fair" indicates few or no clouds below 12,000 feet with no
significant weather and/or obstructions to visibility.

SCZ050-WAZ558-NCZ071-TXZ119-213-PAZ071-DCZ001-FLZ074-172-MI076-
NYZ176-178-MAZ016-IL014-TNZ027-NJZ106-GAZ044-MD014-250900-

...Gateway Observations for Charleston International...

CITY           SKY/WX    TMP DP  RH WIND       PRES   REMARKS
Chas Airport   CLOUDY    60  57  89 NW12      29.61S
Seattle        CLOUDY    49  44  83 S7        29.95R
Charlotte      CLOUDY    54  52  93 NW7       29.66F FOG
Dallas DFW     PTCLDY    67  54  63 S16G28    29.56F
Dallas Love    PTCLDY    65  52  62 S14       29.58F
Philladelphia  CLOUDY    53  50  89 NE10G21   29.99F
Wash National  CLOUDY    55  53  93 NE15      29.90F
Baltimore      CLOUDY    53  53 100 NE10      29.91F
Miami          PTCLDY    69  60  73 W6        29.80S
Detroit        MOCLDY    52  43  71 E5        29.88S
Newark         LGT RAIN  51  48  89 NE12      30.07S
Laguardia      LGT RAIN  50  47  89 NE15      30.07F
J F K          LGT RAIN  53  50  89 NE12      30.08F
Boston Logan   CLOUDY    47  45  93 NE10      30.23S
Ft. Lauderdale PTCLDY    67  61  81 W6        29.79S
Chicago O`Hare PTCLDY    52  41  66 SE7       29.72F
Chicago Midway CLEAR     60  44  55 SE9       29.73F
Houston Bush   PTCLDY    66  57  72 S7        29.73F
Houston Hobby  CLEAR     64  57  78 S8        29.72F
Nashville      CLEAR     55  54  96 NW6       29.77S
Atlanta        DRIZZLE   59  57  93 NW6       29.74S

$$

GAZ044-118-TXZ119-213-NCZ071-DCZ001-MDZ014-506-PAZ021-071-NJZ106-
NYZ176-178-MAZ106-OHZ011-021-055-MIZ076-KYZ091-ILZ014-INZ047-
MNZ060-ONZ431-250900-

...Gateway Observations for Savannah International...

CITY           SKY/WX    TMP DP  RH WIND       PRES   REMARKS
Savannah Arpt  CLOUDY    60  54  80 NW10      29.67S
Atlanta        DRIZZLE   59  57  93 NW6       29.74S
Charlotte      CLOUDY    54  52  93 NW7       29.66F FOG
Dallas DFW     PTCLDY    67  54  63 S16G28    29.56F
Houston Bush   PTCLDY    66  57  72 S7        29.73F
Wash National  CLOUDY    55  53  93 NE15      29.90F
Wash Dulles    CLOUDY    52  50  93 NE12      29.90F
Baltimore      CLOUDY    53  53 100 NE10      29.91F
Philadelphia   CLOUDY    53  50  89 NE10G21   29.99F
Newark         LGT RAIN  51  48  89 NE12      30.07S
Laguardia      LGT RAIN  50  47  89 NE15      30.07F
J F K          LGT RAIN  53  50  89 NE12      30.08F
Boston         CLOUDY    47  45  93 NE10      30.23S
Pittsburg      CLOUDY    53  46  77 SE12      29.89F
Akron          CLOUDY    55  43  63 SE9       29.88S
Cleveland      CLOUDY    58  43  57 SE8       29.88F
Cincinnati     PTCLDY    55  51  86 E8        29.78F
Columbus       CLOUDY    53  48  82 E6        29.82S
Detroit        MOCLDY    52  43  71 E5        29.88S
Chicago O`Hare PTCLDY    52  41  66 SE7       29.72F
Minneapolis    CLOUDY    61  35  37 SE10      29.49F
Indianapolis   CLEAR     57  50  77 SE5       29.77S
Toronto Canada PTCLDY    45  32  61 E10       30.00F

$$




USA.gov is the U.S. government's official web portal to all federal, state and local government web resources and services.